Showing default

COSMOS 2247, 22648

Orbit data source: Space-Track

COSMOS 2247, 22648 is a payload satellite owned by VKS (CIS) in LEO that was launched on Tue, 11 May 1993 UTC via a TSIKLON-3 launch vehicle from the Plesetsk Missile And Space Complex (PKMTR). Payload-class satellites include a variety of spacecraft equipped with specific instruments for various scientific and technological missions. These include communications satellites like Starlink; space stations such as the ISS; scientific satellites like the Hubble; Earth observation satellites from companies like Planet Labs, Umbra, and HawkEye 360; GPS; miniature CubeSats for education and research; and military/defense satellites.

Loading next visibility...
Identifier
22648, 1993-030C
Orbit
LEO
Last TLE update
21 hours ago
Origin
Manufacturer
NPO PM
Mission
Defense Communications
Bus & Motor
STRELA-3, Unknown motor
Mass
225 kg wet, 225 kg dry
Launch date (UTC)
1993-05-11 (32 years ago)
Launch vehicle
TSIKLON-3
Launch site
Plesetsk Missile And Space Complex (PKMTR)
Object type
Payload
Rocket body
Debris
Shape & HBR
Cyl, 1.6 m
Radar Cross Section
1.257 m², Large (>1 m²)

Expand to show TLE details & history

TLE from 21 hours ago
0 COSMOS 2247
1 22648U 93030C   25181.49772100  .00000023  00000-0  68162-4 0  9996
2 22648  82.5787 180.7748 0008728  25.7092  90.5692 12.63266482481673
Epoch: 2025-06-30T11:56Z
TLE epoch observation values (Epoch: 2025-06-30T11:56:43.094Z)
Latitude
62.75434°
Longitude
-111.78986°
Altitude
1,420.304 km
Speed
7.156 km/s
True Right ascension
23h 04m 47s
True Declination
62° 37' 34"
Sunlit
Object was in daylight at epoch
Visualization orbit readout
Latitude
51.83448°
Longitude
-107.26185°
Altitude
1,419.427 km
Speed
7.155 km/s
Apparent Right ascension
04h 02m 19s
Apparent Declination
30° 01' 45"
Sunlit
Object is in daylight
Visualization observer readout
Local Sidereal Time
20:33:00
Azimuth
53.394° ENE
Elevation
3.946°
Doppler factor
1
Orbital elements
Apogee altitude
1,413.605 km
Perigee altitude
1,400.016 km
Semi-major axis
7,784.947 km
Eccentricity
0.00087
Inclination
82.5787°
RAAN
180.7748°
Arg. of periapsis
25.7092°
True anomaly
Unknown
Mean anomaly
90.5692°
Eccentric anomaly
Unknown
Mean motion
3.1598 °/min
Orbital period
113.93 mins
BSTAR
0.000068162
Loading maneuver chart data...
Loading SW <> Apogee altitude chart data...
Loading historical data...
Loading historical data...
Loading historical data...
Loading historical data...
Loading historical data...
Loading historical data...
Loading historical data...

COSMOS 2247 Visibility forecast

Observer location: undefined°, undefined°

Span
Click to sort rows by Start time (UTC) header in descending order
Start Az.
Max El. time (UTC)
Max El. Az.
Max El.
End time (UTC)
End Az.
14 mins2025-07-01 10:44:48.296Z9.169° NNE2025-07-01 10:51:48.296Z72.087° E31.158°2025-07-01 10:58:48.296Z135.917° SSE
13 mins2025-07-01 12:40:48.296Z334.971° NNW2025-07-01 12:46:48.296Z272.341° WNW35.334°2025-07-01 12:53:48.296Z205.221° SW
12 mins2025-07-01 23:33:48.296Z141.803° SSE2025-07-01 23:39:48.296Z80.957° E30.689°2025-07-01 23:45:48.296Z27.224° NE
14 mins2025-07-02 01:27:48.296Z218.421° SW2025-07-02 01:33:48.296Z278.086° WNW35.28°2025-07-02 01:41:48.296Z355.567° N
|